Regional Weather Roundup
Issued by NWS

Home | Current Version | Previous Version | Graphics & Text | Print | Product List | Glossary On
Versions: 1 2 3 4 5 6 7 8 9 10 11 12 13 14 15 16 17 18 19 20 21 22 23 24 25 26 27 28 29 30 31 32 33 34 35 36 37 38 39 40 41 42 43 44 45 46 47 48
000
ASUS45 KBOU 160007
RWRCO

WEATHER ROUNDUP FOR COLORADO
NATIONAL WEATHER SERVICE DENVER/BOULDER CO
600 PM MDT MON SEP 15 2014

NOTE: "FAIR" INDICATES FEW OR NO CLOUDS BELOW 12000 FEET WITH NO
SIGNIFICANT WEATHER AND/OR OBSTRUCTIONS TO VISIBILITY.

COZ001>005-013-030-031-160100-
...NORTHWEST COLORADO...

CITY           SKY/WX    TMP DP  RH WIND       PRES   REMARKS
CRAIG          MOSUNNY   76  40  27 SW8       30.22S
HAYDEN         MOSUNNY   75  36  23 W9        30.25S
MEEKER         MOSUNNY   77  39  25 SW8       30.25S
MOUNT WERNER   NOT AVBL
STEAMBOAT SPGS MOSUNNY   75  36  23 SW6       30.27R
WALDEN         PTSUNNY   70  30  23 W10       30.36S
$$

COZ006>008-011-160100-
...WEST CENTRAL VALLEYS...

CITY           SKY/WX    TMP DP  RH WIND       PRES   REMARKS
GRAND JUNCTION MOSUNNY   85  40  20 W7        30.11F
MONTROSE       MOSUNNY   83  34  17 NW7       30.19S
EAGLE          MOSUNNY   79  36  21 CALM      30.28S
RIFLE          PTSUNNY   81  37  20 W6        30.18S
DELTA          MOSUNNY   89  31  13 SW9G16    30.13S
NUCLA          MOSUNNY   82  32  16 W9        30.22S
$$

COZ017>023-064>068-160100-
...SOUTHWEST COLORADO...

CITY           SKY/WX    TMP DP  RH WIND       PRES   REMARKS
DURANGO        MOSUNNY   78  29  16 W10       30.23S
CORTEZ         SUNNY     84  39  20 S8        30.18F
PAGOSA SPRINGS PTSUNNY   78  24  14 SW5       30.31R
TELLURIDE      NOT AVBL
WOLF CREEK PAS MOSUNNY   54  30  40 SW9       30.64S
$$

COZ009-010-012-014-032>034-037-058>063-160100-
...CENTRAL COLORADO...

CITY           SKY/WX    TMP DP  RH WIND       PRES   REMARKS
ASPEN          MOSUNNY   72  34  24 NW13      30.34R
BUENA VISTA    MOSUNNY   71  27  19 W5        30.36S
COPPER MTN     CLOUDY    54  32  43 W10       30.67R
BERTHOUD PASS  FAIR      43  41  93 MISG      30.71R
COTTONWOOD PAS MOSUNNY   64  27  24 S5        30.51S
GUNNISON       SUNNY     73  34  23 N10       30.33S
KREMMLING      MOSUNNY   73  32  21 CALM      30.33S
LEADVILLE      MOSUNNY   61  28  28 VRB7      30.49R
MONARCH PASS   MOSUNNY   52  30  43 NE16      30.75F
SALIDA         MOSUNNY   71  44  38 E15       30.41R
SUNLIGHT       PTSUNNY   57  34  41 CALM      30.60S
WILKERSON PASS NOT AVBL
$$

COZ069>075-160100-
...SAN LUIS VALLEY/SANGRE DE CRISTO MOUNTAINS...

CITY           SKY/WX    TMP DP  RH WIND       PRES   REMARKS
ALAMOSA        MOSUNNY   70  39  32 SE20      30.33R
LA VETA PASS   NOT AVBL
SAGUACHE       NOT AVBL
$$

COZ035-036-038>040-160100-
...NORTHERN COLORADO FRONT RANGE...

CITY           SKY/WX    TMP DP  RH WIND       PRES   REMARKS
DENVER INTL AP MOSUNNY   73  51  46 E10       30.24F
DMNS CITY PARK   N/A     70  47  43 NW5       30.25R
AURORA         MOSUNNY   72  51  47 S10       30.26R
FRONT RANGE AP NOT AVBL
ERIE MUNI ARPT MOSUNNY   71  41  33 N3        30.25R
BOULDER MUN AP MOSUNNY   68  43  40 E6        30.24F
CENTENNIAL     PTSUNNY   70  49  47 SW3       30.27R
BROOMFIELD     PTSUNNY   68  43  40 N6        30.28R
FORT COLLINS   MOSUNNY   70  45  40 SE8       30.24F
LONGMONT       MOSUNNY   72  44  37 SE13      30.22F
$$

COZ041-046-047-076>085-087-088-160100-
...PIKES PEAK/PALMER DIVIDE AND SOUTHERN FOOTHILLS...

CITY           SKY/WX    TMP DP  RH WIND       PRES   REMARKS
COLO. SPRINGS  PTSUNNY   64  49  57 S12       30.34S THUNDER
A. F. ACADEMY  MOSUNNY   63  48  57 S14       30.34S
ELLICOTT       NOT AVBL
FALCON         MOSUNNY   60  48  64 S9        30.38S
FORT CARSON    MOSUNNY   65  50  57 SE14      30.31S
LIMON          SUNNY     64  50  60 SE14      30.30S
MONUMENT HILL  MOSUNNY   61  46  59 S18       30.34S
TRINIDAD       SUNNY     60  52  74 E10       30.32S
$$

COZ042>045-048>051-090-091-160100-
...NORTHEAST COLORADO...

CITY           SKY/WX    TMP DP  RH WIND       PRES   REMARKS
GREELEY ARPT   SUNNY     70  46  43 SE8       30.24F
AKRON          SUNNY     64  50  60 S17G25    30.26F
BURLINGTON     PTSUNNY   64  49  57 SE9       30.27F
WRAY           SUNNY     67  46  47 SE9       30.25F
STERLING       SUNNY     72  52  49 S10       30.22S
HOLYOKE        SUNNY     66  45  45 S8        30.24F
FORT MORGAN    SUNNY     64  50  59 SE7       30.25F
$$

COZ086-089-092>099-160100-
...SOUTHEAST COLORADO...

CITY           SKY/WX    TMP DP  RH WIND       PRES   REMARKS
PUEBLO         MOSUNNY   68  52  56 E12       30.27R
LA JUNTA       CLOUDY    63  52  67 E12       30.28S
LAMAR          CLOUDY    64  51  62 E8        30.26S
SPRINGFIELD      N/A     58  52  80 NE12      30.29S
$$



USA.gov is the U.S. government's official web portal to all federal, state and local government web resources and services.